| time (UTC) | temp F | wind direction | speed knots | gust knots | rain 1hr in | rain 24hr in | rain mn in | humidity % | barometer mb |
| 20260508031027 | 79 | 233 | 2.6 | 6.1 | 0.00 | 0.00 | 0.00 | 18 | 1013.3 |
| 20260508030523 | 79 | 241 | 0.9 | 5.2 | 0.00 | 0.00 | 0.00 | 18 | 1013.2 |
| 20260508030031 | 80 | 244 | 1.7 | 5.2 | 0.00 | 0.00 | 0.00 | 18 | 1013.2 |
| 20260508025533 | 80 | 226 | 2.6 | 7.8 | 0.00 | 0.00 | 0.00 | 18 | 1013.1 |
| 20260508025029 | 80 | 269 | 3.5 | 8.7 | 0.00 | 0.00 | 0.00 | 18 | 1013.0 |
| 20260508024524 | 80 | 226 | 4.3 | 10.4 | 0.00 | 0.00 | 0.00 | 17 | 1013.0 |
| 20260508024024 | 81 | 249 | 5.2 | 13.0 | 0.00 | 0.00 | 0.00 | 17 | 1012.9 |
| 20260508023520 | 81 | 264 | 7.8 | 16.5 | 0.00 | 0.00 | 0.00 | 17 | 1012.9 |
| 20260508023016 | 81 | 238 | 7.8 | 16.5 | 0.00 | 0.00 | 0.00 | 17 | 1012.8 |
| 20260508022531 | 81 | 246 | 4.3 | 13.0 | 0.00 | 0.00 | 0.00 | 17 | 1012.9 |
| 20260508022027 | 82 | 237 | 7.0 | 13.0 | 0.00 | 0.00 | 0.00 | 16 | 1012.8 |
| 20260508021523 | 82 | 174 | 5.2 | 9.6 | 0.00 | 0.00 | 0.00 | 16 | 1012.7 |
| 20260508021019 | 84 | 132 | 2.6 | 7.8 | 0.00 | 0.00 | 0.00 | 12 | 1012.8 |
| 20260508020519 | 84 | 301 | 1.7 | 8.7 | 0.00 | 0.00 | 0.00 | 12 | 1012.4 |
| 20260508020047 | 85 | 290 | 2.6 | 8.7 | 0.00 | 0.00 | 0.00 | 12 | 1012.2 |
| 20260508015528 | 85 | 267 | 2.6 | 7.8 | 0.00 | 0.00 | 0.00 | 12 | 1012.1 |
| 20260508015024 | 85 | 286 | 3.5 | 7.8 | 0.00 | 0.00 | 0.00 | 12 | 1011.9 |
| 20260508014520 | 85 | 290 | 1.7 | 7.8 | 0.00 | 0.00 | 0.00 | 12 | 1012.0 |
| 20260508014016 | 85 | 302 | 3.5 | 10.4 | 0.00 | 0.00 | 0.00 | 12 | 1011.9 |
| 20260508013531 | 85 | 291 | 3.5 | 12.2 | 0.00 | 0.00 | 0.00 | 12 | 1011.9 |
| 20260508013031 | 85 | 290 | 5.2 | 12.2 | 0.00 | 0.00 | 0.00 | 12 | 1011.9 |
| 20260508012527 | 86 | 291 | 5.2 | 12.2 | 0.00 | 0.00 | 0.00 | 12 | 1011.8 |
| 20260508012023 | 86 | 283 | 6.1 | 11.3 | 0.00 | 0.00 | 0.00 | 12 | 1011.8 |
| 20260508011519 | 86 | 277 | 2.6 | 7.0 | 0.00 | 0.00 | 0.00 | 12 | 1011.6 |
| 20260508011015 | 86 | 279 | 2.6 | 11.3 | 0.00 | 0.00 | 0.00 | 12 | 1011.6 |
| 20260508010531 | 86 | 314 | 3.5 | 11.3 | 0.00 | 0.00 | 0.00 | 12 | 1011.6 |
| 20260508010038 | 87 | 296 | 4.3 | 9.6 | 0.00 | 0.00 | 0.00 | 12 | 1011.4 |
| 20260508005523 | 87 | 348 | 1.7 | 7.0 | 0.00 | 0.00 | 0.00 | 12 | 1011.4 |
| 20260508005019 | 87 | 294 | 2.6 | 8.7 | 0.00 | 0.00 | 0.00 | 12 | 1011.4 |
| 20260508004515 | 87 | 276 | 4.3 | 9.6 | 0.00 | 0.00 | 0.00 | 12 | 1011.3 |
| 20260508003514 | 88 | 273 | 4.3 | 7.8 | 0.00 | 0.00 | 0.00 | 12 | 1011.2 |
| 20260508003029 | 88 | 277 | 3.5 | 10.4 | 0.00 | 0.00 | 0.00 | 12 | 1011.2 |
| 20260508002525 | 88 | 295 | 5.2 | 10.4 | 0.00 | 0.00 | 0.00 | 12 | 1011.1 |
| 20260508002021 | 88 | 284 | 4.3 | 10.4 | 0.00 | 0.00 | 0.00 | 12 | 1011.1 |
| 20260508001517 | 89 | 307 | 4.3 | 10.4 | 0.00 | 0.00 | 0.00 | 12 | 1011.1 |
| 20260508001017 | 90 | 345 | 5.2 | 10.4 | 0.00 | 0.00 | 0.00 | 12 | 1011.2 |
| 20260508000513 | 89 | 293 | 1.7 | 11.3 | 0.00 | 0.00 | 0.00 | 12 | 1011.1 |
| 20260508000040 | 89 | 287 | 4.3 | 9.6 | 0.00 | 0.00 | 0.00 | 12 | 1011.1 |
| 20260507235522 | 88 | 285 | 0.9 | 7.0 | 0.00 | 0.00 | 0.00 | 13 | 1011.2 |
| 20260507235017 | 90 | 329 | 2.6 | 6.1 | 0.00 | 0.00 | 0.00 | 12 | 1011.1 |
| 20260507234513 | 90 | 279 | 1.7 | 7.0 | 0.00 | 0.00 | 0.00 | 12 | 1011.1 |
| 20260507234029 | 89 | 281 | 3.5 | 7.8 | 0.00 | 0.00 | 0.00 | 12 | 1011.2 |
| 20260507233529 | 87 | 18 | 0.9 | 8.7 | 0.00 | 0.00 | 0.00 | 13 | 1011.1 |
| 20260507233024 | 88 | 19 | 4.3 | 8.7 | 0.00 | 0.00 | 0.00 | 12 | 1011.2 |
| 20260507232520 | 89 | 282 | 2.6 | 8.7 | 0.00 | 0.00 | 0.00 | 12 | 1011.1 |
| 20260507232016 | 90 | 296 | 3.5 | 9.6 | 0.00 | 0.00 | 0.00 | 12 | 1011.1 |
| 20260507231532 | 89 | 287 | 1.7 | 9.6 | 0.00 | 0.00 | 0.00 | 12 | 1011.2 |
| 20260507231027 | 89 | 356 | 2.6 | 6.1 | 0.00 | 0.00 | 0.00 | 12 | 1011.2 |
| 20260507230523 | 88 | 51 | 1.7 | 7.8 | 0.00 | 0.00 | 0.00 | 13 | 1011.3 |
| 20260507230035 | 89 | 278 | 2.6 | 7.8 | 0.00 | 0.00 | 0.00 | 12 | 1011.4 |
| 20260507225516 | 89 | 340 | 1.7 | 7.0 | 0.00 | 0.00 | 0.00 | 13 | 1011.4 |
| 20260507224514 | 88 | 5 | 3.5 | 9.6 | 0.00 | 0.00 | 0.00 | 13 | 1011.4 |
| 20260507224030 | 88 | 337 | 4.3 | 10.4 | 0.00 | 0.00 | 0.00 | 13 | 1011.6 |
| 20260507223527 | 90 | 15 | 2.6 | 13.9 | 0.00 | 0.00 | 0.00 | 12 | 1011.4 |
| 20260507223023 | 88 | 49 | 5.2 | 13.9 | 0.00 | 0.00 | 0.00 | 12 | 1011.3 |
| 20260507222524 | 87 | 12 | 2.6 | 7.8 | 0.00 | 0.00 | 0.00 | 13 | 1011.6 |
| 20260507222019 | 88 | 12 | 5.2 | 7.8 | 0.00 | 0.00 | 0.00 | 13 | 1011.6 |
| 20260507221515 | 89 | 16 | 1.7 | 6.1 | 0.00 | 0.00 | 0.00 | 12 | 1011.8 |
| 20260507221030 | 89 | 318 | 2.6 | 8.7 | 0.00 | 0.00 | 0.00 | 12 | 1011.8 |
| 20260507220526 | 90 | 354 | 3.5 | 8.7 | 0.00 | 0.00 | 0.00 | 12 | 1011.9 |
| 20260507220033 | 89 | 354 | 0.9 | 7.8 | 0.00 | 0.00 | 0.00 | 13 | 1011.9 |
| 20260507215515 | 87 | 48 | 1.7 | 7.8 | 0.00 | 0.00 | 0.00 | 12 | 1011.9 |
| 20260507215014 | 88 | 33 | 3.5 | 9.6 | 0.00 | 0.00 | 0.00 | 12 | 1012.0 |
| 20260507214530 | 89 | 20 | 4.3 | 9.6 | 0.00 | 0.00 | 0.00 | 12 | 1011.9 |
| 20260507214025 | 89 | 73 | 2.6 | 5.2 | 0.00 | 0.00 | 0.00 | 11 | 1012.0 |
| 20260507213521 | 89 | 348 | 1.7 | 8.7 | 0.00 | 0.00 | 0.00 | 11 | 1012.1 |
| 20260507213018 | 89 | 350 | 1.7 | 8.7 | 0.00 | 0.00 | 0.00 | 11 | 1012.2 |
| 20260507212513 | 89 | 18 | 2.6 | 7.0 | 0.00 | 0.00 | 0.00 | 11 | 1012.2 |
| 20260507212029 | 89 | 357 | 1.7 | 7.0 | 0.00 | 0.00 | 0.00 | 12 | 1012.2 |
| 20260507211525 | 88 | 13 | 4.3 | 8.7 | 0.00 | 0.00 | 0.00 | 12 | 1012.4 |
| 20260507211025 | 89 | 131 | 3.5 | 8.7 | 0.00 | 0.00 | 0.00 | 11 | 1012.4 |
| 20260507210521 | 89 | 64 | 2.6 | 9.6 | 0.00 | 0.00 | 0.00 | 11 | 1012.5 |
| 20260507210028 | 88 | 46 | 3.5 | 9.6 | 0.00 | 0.00 | 0.00 | 12 | 1012.5 |
| 20260507205529 | 88 | 262 | 1.7 | 6.1 | 0.00 | 0.00 | 0.00 | 11 | 1012.6 |
| 20260507205025 | 87 | 321 | 1.7 | 8.7 | 0.00 | 0.00 | 0.00 | 11 | 1012.7 |
| 20260507204521 | 88 | 20 | 5.2 | 8.7 | 0.00 | 0.00 | 0.00 | 11 | 1012.9 |
| 20260507204017 | 87 | 35 | 5.2 | 9.6 | 0.00 | 0.00 | 0.00 | 11 | 1012.8 |
| 20260507203517 | 87 | 356 | 6.1 | 9.6 | 0.00 | 0.00 | 0.00 | 12 | 1012.9 |
| 20260507203013 | 88 | 328 | 1.7 | 14.8 | 0.00 | 0.00 | 0.00 | 11 | 1012.9 |
| 20260507202529 | 88 | 340 | 5.2 | 14.8 | 0.00 | 0.00 | 0.00 | 12 | 1012.9 |
| 20260507202025 | 86 | 339 | 2.6 | 9.6 | 0.00 | 0.00 | 0.00 | 11 | 1013.0 |
| 20260507201521 | 88 | 42 | 4.3 | 10.4 | 0.00 | 0.00 | 0.00 | 11 | 1013.1 |
| 20260507201016 | 87 | 12 | 6.1 | 10.4 | 0.00 | 0.00 | 0.00 | 11 | 1013.0 |
| 20260507200532 | 87 | 360 | 4.3 | 8.7 | 0.00 | 0.00 | 0.00 | 11 | 1013.1 |
| 20260507200044 | 87 | 2 | 4.3 | 8.7 | 0.00 | 0.00 | 0.00 | 11 | 1013.1 |
| 20260507195525 | 88 | 70 | 3.5 | 7.8 | 0.00 | 0.00 | 0.00 | 11 | 1013.3 |
| 20260507195021 | 87 | 223 | 1.7 | 7.8 | 0.00 | 0.00 | 0.00 | 12 | 1013.3 |
| 20260507194516 | 87 | 202 | 2.6 | 7.8 | 0.00 | 0.00 | 0.00 | 11 | 1013.5 |
| 20260507194013 | 89 | 318 | 1.7 | 3.5 | 0.00 | 0.00 | 0.00 | 11 | 1013.3 |
| 20260507193528 | 87 | 348 | 1.7 | 7.0 | 0.00 | 0.00 | 0.00 | 11 | 1013.6 |
| 20260507193024 | 86 | 331 | 1.7 | 7.8 | 0.00 | 0.00 | 0.00 | 12 | 1013.6 |
| 20260507192524 | 86 | 26 | 2.6 | 5.2 | 0.00 | 0.00 | 0.00 | 12 | 1013.8 |
| 20260507192020 | 88 | 2 | 0.9 | 5.2 | 0.00 | 0.00 | 0.00 | 13 | 1013.8 |
| 20260507191515 | 87 | 9 | 1.7 | 4.3 | 0.00 | 0.00 | 0.00 | 12 | 1013.8 |
| 20260507191031 | 87 | 329 | 0.9 | 4.3 | 0.00 | 0.00 | 0.00 | 12 | 1013.9 |
| 20260507190527 | 88 | 11 | 1.7 | 4.3 | 0.00 | 0.00 | 0.00 | 12 | 1014.1 |
| 20260507190034 | 86 | 36 | 1.7 | 4.3 | 0.00 | 0.00 | 0.00 | 12 | 1014.1 |
| 20260507185516 | 88 | 9 | 1.7 | 4.3 | 0.00 | 0.00 | 0.00 | 13 | 1014.1 |
| 20260507185016 | 86 | 16 | 1.7 | 4.3 | 0.00 | 0.00 | 0.00 | 13 | 1014.3 |
| 20260507184531 | 84 | 66 | 1.7 | 7.0 | 0.00 | 0.00 | 0.00 | 14 | 1014.4 |
| 20260507184027 | 85 | 63 | 4.3 | 7.0 | 0.00 | 0.00 | 0.00 | 14 | 1014.5 |
| 20260507183524 | 87 | 328 | 0.9 | 4.3 | 0.00 | 0.00 | 0.00 | 13 | 1014.6 |
| 20260507183020 | 85 | 325 | 1.7 | 5.2 | 0.00 | 0.00 | 0.00 | 14 | 1014.6 |
| 20260507182516 | 85 | 348 | 1.7 | 6.1 | 0.00 | 0.00 | 0.00 | 15 | 1014.7 |
| 20260507182032 | 84 | 41 | 3.5 | 7.0 | 0.00 | 0.00 | 0.00 | 16 | 1014.7 |
| 20260507181527 | 86 | 352 | 1.7 | 3.5 | 0.00 | 0.00 | 0.00 | 16 | 1014.8 |
| 20260507181027 | 84 | 352 | 1.7 | 7.0 | 0.00 | 0.00 | 0.00 | 16 | 1014.9 |
| 20260507180523 | 83 | 356 | 1.7 | 7.0 | 0.00 | 0.00 | 0.00 | 16 | 1014.9 |
| 20260507180031 | 83 | 9 | 1.7 | 5.2 | 0.00 | 0.00 | 0.00 | 17 | 1014.9 |
| 20260507175532 | 85 | 24 | 1.7 | 4.3 | 0.00 | 0.00 | 0.00 | 16 | 1015.0 |
| 20260507175028 | 82 | 38 | 2.6 | 4.3 | 0.00 | 0.00 | 0.00 | 16 | 1015.0 |
| 20260507174524 | 82 | 64 | 2.6 | 4.3 | 0.00 | 0.00 | 0.00 | 16 | 1015.0 |
| 20260507174020 | 81 | 58 | 1.7 | 4.3 | 0.00 | 0.00 | 0.00 | 17 | 1015.2 |
| 20260507173519 | 82 | 47 | 2.6 | 4.3 | 0.00 | 0.00 | 0.00 | 17 | 1015.3 |
| 20260507173015 | 81 | 132 | 0.9 | 3.5 | 0.00 | 0.00 | 0.00 | 18 | 1015.3 |
| 20260507172531 | 81 | 131 | 2.6 | 3.5 | 0.00 | 0.00 | 0.00 | 18 | 1015.4 |
| 20260507172027 | 83 | 155 | 0.9 | 4.3 | 0.00 | 0.00 | 0.00 | 18 | 1015.4 |
| 20260507171523 | 81 | 219 | 1.7 | 7.0 | 0.00 | 0.00 | 0.00 | 19 | 1015.5 |
| 20260507171019 | 81 | 227 | 2.6 | 7.0 | 0.00 | 0.00 | 0.00 | 19 | 1015.6 |
| 20260507170514 | 80 | 102 | 0.0 | 2.6 | 0.00 | 0.00 | 0.00 | 20 | 1015.5 |
| 20260507170027 | 78 | 104 | 0.9 | 4.3 | 0.00 | 0.00 | 0.00 | 20 | 1015.5 |
| 20260507165528 | 77 | 105 | 2.6 | 4.3 | 0.00 | 0.00 | 0.00 | 21 | 1015.8 |
| 20260507165024 | 77 | 210 | 0.9 | 6.1 | 0.00 | 0.00 | 0.00 | 20 | 1015.7 |
| 20260507164519 | 77 | 113 | 2.6 | 7.0 | 0.00 | 0.00 | 0.00 | 21 | 1015.7 |
| 20260507164015 | 77 | 211 | 0.9 | 7.0 | 0.00 | 0.00 | 0.00 | 20 | 1015.8 |
| 20260507163531 | 77 | 116 | 1.7 | 4.3 | 0.00 | 0.00 | 0.00 | 22 | 1015.8 |
| 20260507163027 | 75 | 126 | 2.6 | 6.1 | 0.00 | 0.00 | 0.00 | 22 | 1015.8 |
| 20260507162527 | 75 | 141 | 1.7 | 6.1 | 0.00 | 0.00 | 0.00 | 23 | 1015.9 |
| 20260507162023 | 75 | 126 | 1.7 | 5.2 | 0.00 | 0.00 | 0.00 | 23 | 1016.0 |
| 20260507161519 | 75 | 210 | 1.7 | 5.2 | 0.00 | 0.00 | 0.00 | 23 | 1016.0 |
| 20260507161015 | 73 | 90 | 3.5 | 7.0 | 0.00 | 0.00 | 0.00 | 25 | 1016.1 |
| 20260507160530 | 73 | 96 | 4.3 | 7.0 | 0.00 | 0.00 | 0.00 | 24 | 1016.2 |
| 20260507160038 | 74 | 92 | 1.7 | 6.1 | 0.00 | 0.00 | 0.00 | 24 | 1016.3 |
| 20260507155519 | 74 | 61 | 0.9 | 2.6 | 0.00 | 0.00 | 0.00 | 24 | 1016.1 |
| 20260507155019 | 74 | 60 | 1.7 | 4.3 | 0.00 | 0.00 | 0.00 | 25 | 1016.3 |
| 20260507154515 | 73 | 61 | 1.7 | 4.3 | 0.00 | 0.00 | 0.00 | 26 | 1016.4 |
| 20260507154031 | 72 | 87 | 1.7 | 6.1 | 0.00 | 0.00 | 0.00 | 26 | 1016.4 |
| 20260507153526 | 72 | 90 | 2.6 | 6.1 | 0.00 | 0.00 | 0.00 | 25 | 1016.4 |
| 20260507153022 | 72 | 85 | 0.9 | 3.5 | 0.00 | 0.00 | 0.00 | 26 | 1016.4 |
| 20260507152518 | 71 | 88 | 1.7 | 3.5 | 0.00 | 0.00 | 0.00 | 27 | 1016.5 |
| 20260507152014 | 69 | 72 | 1.7 | 3.5 | 0.00 | 0.00 | 0.00 | 27 | 1016.4 |
| 20260507151514 | 70 | 58 | 1.7 | 4.3 | 0.00 | 0.00 | 0.00 | 29 | 1016.5 |
| 20260507151031 | 69 | 89 | 1.7 | 4.3 | 0.00 | 0.00 | 0.00 | 28 | 1016.4 |
| 20260507150527 | 68 | 136 | 1.7 | 4.3 | 0.00 | 0.00 | 0.00 | 29 | 1016.5 |
| 20260507150035 | 67 | 141 | 1.7 | 4.3 | 0.00 | 0.00 | 0.00 | 30 | 1016.5 |
| 20260507145516 | 67 | 152 | 0.9 | 4.3 | 0.00 | 0.00 | 0.00 | 30 | 1016.5 |
| 20260507145012 | 67 | 119 | 1.7 | 4.3 | 0.00 | 0.00 | 0.00 | 31 | 1016.5 |
| 20260507144528 | 66 | 118 | 2.6 | 4.3 | 0.00 | 0.00 | 0.00 | 30 | 1016.5 |
| 20260507144024 | 66 | 137 | 0.9 | 4.3 | 0.00 | 0.00 | 0.00 | 33 | 1016.5 |
| 20260507143523 | 65 | 164 | 0.9 | 5.2 | 0.00 | 0.00 | 0.00 | 34 | 1016.6 |
| 20260507143019 | 64 | 148 | 2.6 | 5.2 | 0.00 | 0.00 | 0.00 | 33 | 1016.7 |
| 20260507142514 | 65 | 140 | 1.7 | 5.2 | 0.00 | 0.00 | 0.00 | 34 | 1016.6 |
| 20260507142030 | 64 | 115 | 2.6 | 4.3 | 0.00 | 0.00 | 0.00 | 35 | 1016.6 |
| 20260507141526 | 64 | 125 | 1.7 | 4.3 | 0.00 | 0.00 | 0.00 | 34 | 1016.5 |
| 20260507141022 | 64 | 159 | 0.9 | 5.2 | 0.00 | 0.00 | 0.00 | 35 | 1016.5 |
| 20260507140518 | 64 | 130 | 1.7 | 4.3 | 0.00 | 0.00 | 0.00 | 35 | 1016.5 |
| 20260507140030 | 63 | 159 | 0.9 | 4.3 | 0.00 | 0.00 | 0.00 | 35 | 1016.4 |
| 20260507135531 | 63 | 128 | 1.7 | 4.3 | 0.00 | 0.00 | 0.00 | 36 | 1016.4 |
| 20260507135027 | 62 | 159 | 0.9 | 3.5 | 0.00 | 0.00 | 0.00 | 38 | 1016.5 |
| 20260507134524 | 61 | 142 | 0.9 | 3.5 | 0.00 | 0.00 | 0.00 | 38 | 1016.4 |
| 20260507134020 | 61 | 128 | 0.0 | 1.7 | 0.00 | 0.00 | 0.00 | 40 | 1016.4 |
| 20260507133516 | 60 | 113 | 0.9 | 2.6 | 0.00 | 0.00 | 0.00 | 41 | 1016.4 |
| 20260507133031 | 59 | 111 | 0.9 | 2.6 | 0.00 | 0.00 | 0.00 | 43 | 1016.4 |
| 20260507132531 | 58 | 148 | 0.0 | 3.5 | 0.00 | 0.00 | 0.00 | 44 | 1016.3 |
| 20260507132028 | 58 | 143 | 0.9 | 3.5 | 0.00 | 0.00 | 0.00 | 46 | 1016.3 |
| 20260507131524 | 57 | 146 | 0.0 | 2.6 | 0.00 | 0.00 | 0.00 | 47 | 1016.3 |
| 20260507131020 | 57 | 144 | 0.0 | 3.5 | 0.00 | 0.00 | 0.00 | 48 | 1016.3 |
| 20260507130516 | 56 | 143 | 0.9 | 3.5 | 0.00 | 0.00 | 0.00 | 49 | 1016.2 |
| 20260507130043 | 56 | 143 | 0.0 | 1.7 | 0.00 | 0.00 | 0.00 | 49 | 1016.2 |
| 20260507125525 | 55 | 142 | 0.0 | 0.9 | 0.00 | 0.00 | 0.00 | 50 | 1016.2 |
| 20260507125024 | 55 | 136 | 0.0 | 0.0 | 0.00 | 0.00 | 0.00 | 51 | 1016.1 |
| 20260507124520 | 55 | 136 | 0.0 | 0.0 | 0.00 | 0.00 | 0.00 | 51 | 1016.1 |
| 20260507124016 | 55 | 136 | 0.0 | 0.0 | 0.00 | 0.00 | 0.00 | 51 | 1016.1 |
| 20260507123512 | 55 | 136 | 0.0 | 0.0 | 0.00 | 0.00 | 0.00 | 50 | 1016.0 |
| 20260507123028 | 55 | 136 | 0.0 | 0.0 | 0.00 | 0.00 | 0.00 | 50 | 1016.0 |
| 20260507122524 | 55 | 136 | 0.0 | 0.0 | 0.00 | 0.00 | 0.00 | 50 | 1016.0 |
| 20260507122020 | 55 | 135 | 0.0 | 0.0 | 0.00 | 0.00 | 0.00 | 50 | 1016.0 |
| 20260507121519 | 55 | 136 | 0.0 | 0.9 | 0.00 | 0.00 | 0.00 | 50 | 1016.0 |
| 20260507121015 | 56 | 136 | 0.0 | 0.9 | 0.00 | 0.00 | 0.00 | 48 | 1015.9 |
| 20260507120531 | 56 | 136 | 0.0 | 0.0 | 0.00 | 0.00 | 0.00 | 48 | 1015.9 |
| 20260507120039 | 56 | 136 | 0.0 | 0.9 | 0.00 | 0.00 | 0.00 | 49 | 1015.9 |
| 20260507115521 | 56 | 136 | 0.0 | 1.7 | 0.00 | 0.00 | 0.00 | 48 | 1016.0 |
| 20260507115016 | 56 | 136 | 0.0 | 2.6 | 0.00 | 0.00 | 0.00 | 48 | 1016.0 |
| 20260507114512 | 58 | 204 | 0.9 | 2.6 | 0.00 | 0.00 | 0.00 | 44 | 1016.0 |
| 20260507114012 | 58 | 204 | 0.9 | 3.5 | 0.00 | 0.00 | 0.00 | 45 | 1016.1 |
| 20260507113528 | 57 | 205 | 0.9 | 3.5 | 0.00 | 0.00 | 0.00 | 45 | 1016.1 |
| 20260507113024 | 57 | 206 | 0.0 | 3.5 | 0.00 | 0.00 | 0.00 | 45 | 1016.1 |
| 20260507112520 | 57 | 206 | 0.0 | 3.5 | 0.00 | 0.00 | 0.00 | 45 | 1016.1 |
| 20260507112016 | 58 | 221 | 0.0 | 3.5 | 0.00 | 0.00 | 0.00 | 44 | 1016.1 |
| 20260507111512 | 57 | 293 | 0.0 | 1.7 | 0.00 | 0.00 | 0.00 | 44 | 1016.0 |
| 20260507111028 | 57 | 293 | 0.0 | 1.7 | 0.00 | 0.00 | 0.00 | 44 | 1016.0 |
| 20260507110523 | 56 | 293 | 0.0 | 0.9 | 0.00 | 0.00 | 0.00 | 46 | 1015.9 |
| 20260507110035 | 57 | 293 | 0.0 | 0.9 | 0.00 | 0.00 | 0.00 | 45 | 1015.8 |
| 20260507105516 | 58 | 293 | 0.0 | 0.9 | 0.00 | 0.00 | 0.00 | 44 | 1015.8 |
| 20260507105012 | 57 | 293 | 0.0 | 0.9 | 0.00 | 0.00 | 0.00 | 46 | 1015.9 |
| 20260507104527 | 57 | 293 | 0.0 | 0.9 | 0.00 | 0.00 | 0.00 | 46 | 1015.8 |
| 20260507104023 | 58 | 293 | 0.0 | 0.9 | 0.00 | 0.00 | 0.00 | 45 | 1015.9 |
| 20260507103518 | 58 | 293 | 0.0 | 1.7 | 0.00 | 0.00 | 0.00 | 42 | 1015.9 |
| 20260507103014 | 59 | 293 | 0.0 | 1.7 | 0.00 | 0.00 | 0.00 | 41 | 1015.9 |
| 20260507102514 | 59 | 293 | 0.0 | 1.7 | 0.00 | 0.00 | 0.00 | 42 | 1016.0 |
| 20260507102029 | 59 | 293 | 0.0 | 1.7 | 0.00 | 0.00 | 0.00 | 42 | 1016.0 |
| 20260507101524 | 58 | 293 | 0.9 | 1.7 | 0.00 | 0.00 | 0.00 | 45 | 1016.0 |
| 20260507101020 | 58 | 293 | 0.0 | 0.0 | 0.00 | 0.00 | 0.00 | 44 | 1016.0 |
| 20260507100516 | 58 | 293 | 0.0 | 0.9 | 0.00 | 0.00 | 0.00 | 43 | 1016.1 |
| 20260507100043 | 59 | 293 | 0.0 | 0.9 | 0.00 | 0.00 | 0.00 | 42 | 1016.0 |
| 20260507095525 | 59 | 293 | 0.0 | 0.9 | 0.00 | 0.00 | 0.00 | 41 | 1016.2 |
| 20260507095024 | 59 | 293 | 0.0 | 0.0 | 0.00 | 0.00 | 0.00 | 41 | 1016.2 |
| 20260507094519 | 59 | 293 | 0.0 | 0.9 | 0.00 | 0.00 | 0.00 | 41 | 1016.2 |
| 20260507094015 | 60 | 293 | 0.0 | 1.7 | 0.00 | 0.00 | 0.00 | 39 | 1016.2 |
| 20260507093530 | 60 | 293 | 0.0 | 2.6 | 0.00 | 0.00 | 0.00 | 39 | 1016.2 |
| 20260507093025 | 60 | 293 | 0.0 | 1.7 | 0.00 | 0.00 | 0.00 | 39 | 1016.2 |
| 20260507092520 | 60 | 293 | 0.0 | 0.0 | 0.00 | 0.00 | 0.00 | 38 | 1016.2 |
| 20260507092016 | 61 | 293 | 0.0 | 0.9 | 0.00 | 0.00 | 0.00 | 37 | 1016.2 |
| 20260507091513 | 61 | 293 | 0.0 | 0.9 | 0.00 | 0.00 | 0.00 | 36 | 1016.3 |
| 20260507091029 | 61 | 293 | 0.0 | 0.9 | 0.00 | 0.00 | 0.00 | 35 | 1016.4 |
| 20260507090524 | 62 | 293 | 0.0 | 1.7 | 0.00 | 0.00 | 0.00 | 35 | 1016.3 |
| 20260507090032 | 62 | 293 | 0.0 | 1.7 | 0.00 | 0.00 | 0.00 | 34 | 1016.3 |
| 20260507085513 | 62 | 293 | 0.0 | 1.7 | 0.00 | 0.00 | 0.00 | 34 | 1016.3 |
| 20260507085029 | 62 | 292 | 0.0 | 1.7 | 0.00 | 0.00 | 0.00 | 34 | 1016.3 |
| 20260507084525 | 62 | 292 | 0.0 | 1.7 | 0.00 | 0.00 | 0.00 | 33 | 1016.4 |
| 20260507084020 | 62 | 292 | 0.0 | 2.6 | 0.00 | 0.00 | 0.00 | 34 | 1016.3 |
| 20260507083520 | 62 | 291 | 0.9 | 2.6 | 0.00 | 0.00 | 0.00 | 34 | 1016.3 |
| 20260507083016 | 63 | 290 | 0.0 | 0.9 | 0.00 | 0.00 | 0.00 | 32 | 1016.3 |
| 20260507082512 | 63 | 293 | 0.0 | 1.7 | 0.00 | 0.00 | 0.00 | 31 | 1016.4 |
| 20260507082027 | 63 | 292 | 0.0 | 2.6 | 0.00 | 0.00 | 0.00 | 31 | 1016.4 |
| 20260507081522 | 63 | 292 | 0.0 | 2.6 | 0.00 | 0.00 | 0.00 | 31 | 1016.5 |
| 20260507081018 | 63 | 292 | 0.9 | 3.5 | 0.00 | 0.00 | 0.00 | 31 | 1016.5 |
| 20260507080514 | 64 | 295 | 0.9 | 3.5 | 0.00 | 0.00 | 0.00 | 31 | 1016.4 |
| 20260507080026 | 64 | 294 | 0.9 | 3.5 | 0.00 | 0.00 | 0.00 | 31 | 1016.4 |
| 20260507075527 | 64 | 294 | 0.0 | 1.7 | 0.00 | 0.00 | 0.00 | 31 | 1016.4 |
| 20260507075022 | 64 | 293 | 0.0 | 3.5 | 0.00 | 0.00 | 0.00 | 31 | 1016.3 |
| 20260507074518 | 64 | 295 | 0.0 | 3.5 | 0.00 | 0.00 | 0.00 | 31 | 1016.5 |
| 20260507074014 | 64 | 296 | 0.0 | 1.7 | 0.00 | 0.00 | 0.00 | 31 | 1016.4 |
| 20260507073530 | 64 | 296 | 0.0 | 0.9 | 0.00 | 0.00 | 0.00 | 30 | 1016.4 |
| 20260507073025 | 64 | 296 | 0.0 | 3.5 | 0.00 | 0.00 | 0.00 | 30 | 1016.3 |
| 20260507072525 | 65 | 294 | 0.9 | 3.5 | 0.00 | 0.00 | 0.00 | 29 | 1016.3 |
| 20260507072021 | 64 | 296 | 0.0 | 0.9 | 0.00 | 0.00 | 0.00 | 29 | 1016.5 |
| 20260507071517 | 65 | 296 | 0.0 | 1.7 | 0.00 | 0.00 | 0.00 | 28 | 1016.4 |
| 20260507071012 | 65 | 296 | 0.0 | 1.7 | 0.00 | 0.00 | 0.00 | 28 | 1016.5 |
| 20260507070528 | 64 | 296 | 0.0 | 1.7 | 0.00 | 0.00 | 0.00 | 29 | 1016.4 |
| 20260507070037 | 64 | 296 | 0.0 | 1.7 | 0.00 | 0.00 | 0.00 | 29 | 1016.5 |
| 20260507065518 | 65 | 296 | 0.9 | 1.7 | 0.00 | 0.00 | 0.00 | 29 | 1016.4 |
| 20260507065018 | 65 | 296 | 0.9 | 1.7 | 0.00 | 0.00 | 0.00 | 28 | 1016.3 |
| 20260507064514 | 65 | 296 | 0.0 | 1.7 | 0.00 | 0.00 | 0.00 | 27 | 1016.4 |
| 20260507064029 | 66 | 296 | 0.0 | 2.6 | 0.00 | 0.00 | 0.00 | 28 | 1016.4 |
| 20260507063524 | 66 | 296 | 0.9 | 1.7 | 0.00 | 0.00 | 0.00 | 27 | 1016.4 |
| 20260507063020 | 66 | 296 | 0.0 | 1.7 | 0.00 | 0.00 | 0.00 | 27 | 1016.4 |
| 20260507062516 | 66 | 296 | 0.9 | 1.7 | 0.00 | 0.00 | 0.00 | 26 | 1016.3 |
| 20260507062012 | 67 | 296 | 0.9 | 1.7 | 0.00 | 0.00 | 0.00 | 26 | 1016.3 |
| 20260507061511 | 66 | 296 | 0.9 | 3.5 | 0.00 | 0.00 | 0.00 | 27 | 1016.3 |
| 20260507061027 | 66 | 296 | 0.9 | 5.2 | 0.00 | 0.00 | 0.00 | 27 | 1016.3 |
| 20260507060523 | 67 | 299 | 0.9 | 5.2 | 0.00 | 0.00 | 0.00 | 26 | 1016.3 |
| 20260507060030 | 66 | 288 | 0.9 | 3.5 | 0.00 | 0.00 | 0.00 | 26 | 1016.3 |
| 20260507055511 | 67 | 290 | 0.9 | 3.5 | 0.00 | 0.00 | 0.00 | 26 | 1016.3 |
| 20260507055027 | 67 | 290 | 0.9 | 2.6 | 0.00 | 0.00 | 0.00 | 26 | 1016.3 |
| 20260507054523 | 67 | 290 | 0.9 | 3.5 | 0.00 | 0.00 | 0.00 | 26 | 1016.3 |
| 20260507054019 | 67 | 289 | 0.9 | 3.5 | 0.00 | 0.00 | 0.00 | 25 | 1016.4 |
| 20260507053518 | 67 | 288 | 0.9 | 3.5 | 0.00 | 0.00 | 0.00 | 25 | 1016.4 |
| 20260507053014 | 67 | 287 | 0.9 | 3.5 | 0.00 | 0.00 | 0.00 | 25 | 1016.3 |
| 20260507052530 | 67 | 290 | 0.9 | 3.5 | 0.00 | 0.00 | 0.00 | 25 | 1016.4 |
| 20260507052026 | 67 | 290 | 1.7 | 5.2 | 0.00 | 0.00 | 0.00 | 25 | 1016.2 |
| 20260507051522 | 68 | 286 | 0.9 | 6.1 | 0.00 | 0.00 | 0.00 | 25 | 1016.3 |
| 20260507051018 | 68 | 285 | 0.9 | 6.1 | 0.00 | 0.00 | 0.00 | 25 | 1016.3 |
| 20260507050513 | 68 | 288 | 1.7 | 3.5 | 0.00 | 0.00 | 0.00 | 25 | 1016.3 |
| 20260507050025 | 68 | 290 | 0.9 | 2.6 | 0.00 | 0.00 | 0.00 | 26 | 1016.2 |
| 20260507045527 | 68 | 290 | 0.9 | 1.7 | 0.00 | 0.00 | 0.00 | 25 | 1016.1 |
| 20260507045023 | 68 | 290 | 0.9 | 1.7 | 0.00 | 0.00 | 0.00 | 25 | 1016.1 |
| 20260507044518 | 68 | 290 | 0.0 | 2.6 | 0.00 | 0.00 | 0.00 | 25 | 1016.0 |
| 20260507044014 | 69 | 290 | 0.0 | 2.6 | 0.00 | 0.00 | 0.00 | 24 | 1016.0 |
| 20260507043530 | 69 | 290 | 0.0 | 6.1 | 0.00 | 0.00 | 0.00 | 24 | 1016.0 |
| 20260507043026 | 69 | 296 | 0.9 | 6.1 | 0.00 | 0.00 | 0.00 | 24 | 1015.8 |
| 20260507042525 | 69 | 293 | 1.7 | 3.5 | 0.00 | 0.00 | 0.00 | 24 | 1015.8 |
| 20260507042021 | 69 | 296 | 0.0 | 3.5 | 0.00 | 0.00 | 0.00 | 24 | 1015.8 |
| 20260507041517 | 70 | 292 | 0.9 | 4.3 | 0.00 | 0.00 | 0.00 | 23 | 1015.8 |
| 20260507041013 | 70 | 292 | 1.7 | 4.3 | 0.00 | 0.00 | 0.00 | 23 | 1015.8 |
| 20260507040528 | 70 | 294 | 0.9 | 4.3 | 0.00 | 0.00 | 0.00 | 23 | 1015.8 |
| 20260507040036 | 70 | 298 | 0.9 | 4.3 | 0.00 | 0.00 | 0.00 | 23 | 1015.7 |
| 20260507035517 | 70 | 293 | 0.9 | 3.5 | 0.00 | 0.00 | 0.00 | 23 | 1015.7 |
| 20260507035017 | 71 | 302 | 1.7 | 3.5 | 0.00 | 0.00 | 0.00 | 22 | 1015.7 |
| 20260507034533 | 71 | 292 | 0.9 | 4.3 | 0.00 | 0.00 | 0.00 | 22 | 1015.5 |
| 20260507034028 | 71 | 299 | 1.7 | 4.3 | 0.00 | 0.00 | 0.00 | 22 | 1015.6 |
| 20260507033524 | 71 | 304 | 0.9 | 2.6 | 0.00 | 0.00 | 0.00 | 22 | 1015.4 |
| 20260507033020 | 71 | 311 | 0.9 | 2.6 | 0.00 | 0.00 | 0.00 | 23 | 1015.5 |
| 20260507032516 | 71 | 289 | 0.9 | 2.6 | 0.00 | 0.00 | 0.00 | 23 | 1015.4 |
| 20260507032031 | 71 | 288 | 0.9 | 5.2 | 0.00 | 0.00 | 0.00 | 22 | 1015.4 |
| 20260507031527 | 72 | 286 | 1.7 | 5.2 | 0.00 | 0.00 | 0.00 | 22 | 1015.2 |